Starlink 3305

operational
NORAD ID: 50166 Int'l Des: 2021-125 Owner: SPXS Country: US Constellation: starlink
LEOCIRCULAR

About Starlink 3305

Description loading...

Live Position

Loading 3D Globe...

Upcoming Passes

Altitude History

Altitude vs Time

uPlot chart will show altitude changes over time

Two-Line Element Set

1 50166U 21125L 25351.17222168 .00002004 00000-0 14395-3 0 9995
2 50166 53.2169 259.4877 0001427 85.3535 274.7620 15.08843819224138
Epoch: Dec 17, 2025 • Age: 12 hours

Current Status

Altitude 559.3 km
Velocity 7.58 km/s
Sub-Earth Point -53.37°S, 166.35°W
Launch Date Dec 18, 2021
Age 3.9 years
Type internet

Technical Details

Classification Payload
Mass 290.00 kg
Dry Mass 270.00 kg
Total Mass 290.00 kg
Length 0.20 m
Diameter 2.80 m
Span 9.00 m
Shape Box + pan
Manufacturer SPXS
Bus Type Starlink
Phase Status In Orbit
Owner/State SPXS/US

Large Constellations

Loading constellations...